Hurricane Symbol View the latest observations near Atlantic Remnants Of Alberto.

Station CNDO1 - 9063063 - Cleveland, OH Image indicating link to RSS feed of recent meteorological observations for station CNDO1


Conditions at CNDO1 as of
(5:30 pm EDT)
2130 GMT on 06/20/2024:
     

Click on the graph icon in the table below to see a time series plot of the last five days of that observation.

5-day plot - Wind Direction Wind Direction (WDIR):ENE ( 60 deg true )
5-day plot - Wind Speed Wind Speed (WSPD): 8.9 kts
5-day plot - Wind Gust Wind Gust (GST): 9.9 kts
5-day plot - Atmospheric Pressure Atmospheric Pressure (PRES):30.19 in
5-day plot - Air Temperature Air Temperature (ATMP): 82.0 °F
5-day plot - Water Temperature Water Temperature (WTMP): 69.6 °F
5-day plot - Wind Speed at 10 Meters Wind Speed at 10 meters (WSPD10M): 7.8 kts
5-day plot - Wind Speed at 20 Meters Wind Speed at 20 meters (WSPD20M): 9.7 kts
5-day plot -  Wind Speed, Wind Gust and Atmospheric Pressure Combined plot of Wind Speed, Gust, and Air Pressure
NOS Water Level Observation Network Water Level
Previous observations
TIME
(EDT)
5-day plot - Wind Direction
WDIR
 
5-day plot - Wind Speed
WSPD
kts
5-day plot - Wind Gust
GST
kts
5-day plot - Wave Height
WVHT
ft
5-day plot - Dominant Wave Period
DPD
sec
5-day plot - Average Wave Period
APD
sec
5-day plot - Mean Wave Direction
MWD
 
5-day plot - Atmospheric Pressure
PRES
in
5-day plot - Pressure Tendency
PTDY
in
5-day plot - Air Temperature
ATMP
°F
5-day plot - Water Temperature
WTMP
°F
5-day plot - Dew Point
DEWP
°F
5-day plot - Salinity
SAL
psu
5-day plot - Visibility
VIS
nmi
5-day plot - Tide (above MLLW)
TIDE
ft
2024-06-20 05:24 pmENE 8.0 8.9----30.19- 81.3 69.6----
2024-06-20 05:18 pmENE 8.0 9.9----30.19- 82.0 69.6----
2024-06-20 05:12 pmENE 8.0 8.9----30.19- 81.9 69.6----
2024-06-20 05:06 pmENE 8.0 8.9----30.19- 81.7 69.6----
2024-06-20 05:00 pm E 7.0 8.0----30.19-0.05 82.2 69.6----
2024-06-20 04:54 pmENE 8.0 9.9----30.19- 82.2 69.6----
2024-06-20 04:48 pmENE 8.9 9.9----30.19- 82.2 69.6----
2024-06-20 04:42 pm E 7.0 8.9----30.19- 81.7 69.6----
2024-06-20 04:36 pmENE 8.0 9.9----30.19- 81.5 69.6----
2024-06-20 04:30 pmENE 7.0 8.0----30.19- 81.5 69.6----
2024-06-20 04:24 pmENE 7.0 8.0----30.20- 80.8 69.6----
2024-06-20 04:18 pmENE 7.0 8.0----30.20- 81.1 69.6----
2024-06-20 04:12 pmENE 6.0 7.0----30.20- 81.0 69.6----
2024-06-20 04:06 pm E 6.0 7.0----30.20- 81.9 69.6----
2024-06-20 04:00 pmENE 6.0 7.0----30.21-0.04 82.2 69.6----
2024-06-20 03:54 pm E 6.0 8.0----30.20- 82.0 69.6----
2024-06-20 03:48 pmENE 6.0 8.0----30.21- 83.3 69.6----
2024-06-20 03:42 pm E 5.1 5.1----30.21- 83.3 69.6----
2024-06-20 03:36 pmENE 5.1 6.0----30.21- 82.9 69.6----
2024-06-20 03:30 pmENE 6.0 8.0----30.21-- 69.6----
2024-06-20 03:24 pmENE 7.0 8.0----30.21-- 69.6----
2024-06-20 03:18 pmENE 7.0 8.0----30.22- 82.9 69.6----
2024-06-20 03:12 pm E 2.9 6.0----30.22- 81.9 69.6----
2024-06-20 03:06 pm E 2.9 5.1----30.22- 82.4 69.6----
2024-06-20 03:00 pm E 1.9 2.9----30.22-0.03 82.8 69.6----
2024-06-20 02:54 pm E 2.9 6.0----30.22- 82.2 69.6----
2024-06-20 02:48 pm E 5.1 6.0----30.23- 81.9 69.6----
2024-06-20 02:42 pm E 1.9 4.1----30.23- 82.4 69.4----
2024-06-20 02:36 pm E 2.9 5.1----30.23- 83.1 69.6----
2024-06-20 02:30 pm E 2.9 6.0----30.23- 83.3 69.4----
2024-06-20 02:24 pm E 4.1 5.1----30.23- 82.8 69.4----
2024-06-20 02:18 pm E 1.9 5.1----30.24- 82.4 69.6----
2024-06-20 02:12 pmENE 5.1 6.0----30.24- 82.4 69.4----
2024-06-20 02:06 pm E 4.1 5.1----30.24- 82.0 69.6----
2024-06-20 02:00 pm E 2.9 6.0----30.24-0.01 82.9 69.6----
2024-06-20 01:54 pm E 4.1 6.0----30.24- 81.9 69.6----
2024-06-20 01:48 pm E 1.9 6.0----30.24- 81.5 69.6----
2024-06-20 01:42 pm NE 5.1 6.0----30.24- 82.8 69.6----
2024-06-20 01:36 pm E 2.9 5.1----30.25- 81.9 69.6----
2024-06-20 01:30 pm E 2.9 5.1----30.25- 82.0 69.4----
2024-06-20 01:24 pm NE 2.9 5.1----30.25- 82.0 69.4----
2024-06-20 01:18 pm E 2.9 4.1----30.25- 84.6 69.4----
2024-06-20 01:12 pmESE 1.9 2.9----30.25- 84.2 69.4----
2024-06-20 01:06 pm E 1.9 2.9----30.25- 84.2 69.6----
2024-06-20 01:00 pm NE 2.9 2.9----30.25+0.00 84.7 69.4----
2024-06-20 12:54 pm NE 1.9 4.1----30.25- 84.2 69.4----
2024-06-20 12:48 pmNNE 4.1 5.1----30.25- 83.3 69.4----
2024-06-20 12:42 pmNNE 4.1 5.1----30.25- 82.6 69.4----
2024-06-20 12:36 pmNNE 5.1 6.0----30.25- 82.6 69.4----
2024-06-20 12:30 pm N 5.1 7.0----30.26- 82.4 69.4----
2024-06-20 12:24 pmNNE 5.1 6.0----30.26- 82.6 69.4----
2024-06-20 12:18 pmENE 1.0 2.9----30.26- 81.5 69.4----
2024-06-20 12:12 pmENE 1.9 5.1----30.26- 81.5 69.4----
2024-06-20 12:06 pmNNE 5.1 6.0----30.25- 82.2 69.4----
2024-06-20 12:00 pm N 6.0 6.0----30.25+0.00 82.4 69.4----
2024-06-20 11:54 amNNW 5.1 6.0----30.25- 82.8 69.4----
2024-06-20 11:48 amNNW 5.1 5.1----30.25- 82.9 69.4----
2024-06-20 11:42 am NW 5.1 5.1----30.25- 82.9 69.4----
2024-06-20 11:36 am NW 1.9 2.9----30.25- 81.7 69.4----
2024-06-20 11:30 am NW 1.9 2.9----30.25- 82.0 69.4----
2024-06-20 11:24 am W 1.9 2.9----30.25- 81.7 69.4----
2024-06-20 11:18 am W 1.0 1.9----30.25- 81.7 69.4----
2024-06-20 11:12 amWNW 1.0 2.9----30.25- 81.1 69.4----
2024-06-20 11:06 am W 4.1 5.1----30.25- 81.0 69.4----
2024-06-20 11:00 am W 1.9 4.1----30.25+0.00 81.5 69.4----
2024-06-20 10:54 amWSW 1.9 5.1----30.25- 83.8 69.4----
2024-06-20 10:48 am W 4.1 5.1----30.25- 86.4 69.4----
2024-06-20 10:42 amWSW 1.9 6.0----30.25- 86.0 69.4----
2024-06-20 10:36 amWSW 5.1 8.0----30.25- 84.9 69.4----
2024-06-20 10:30 amWSW 2.9 5.1----30.25- 83.7 69.4----
2024-06-20 10:24 am W 5.1 6.0----30.25- 85.6 69.4----
2024-06-20 10:18 am W 5.1 6.0----30.25- 83.1 69.4----
2024-06-20 10:12 amWSW 1.9 4.1----30.25- 85.3 69.4----
2024-06-20 10:06 am SW 2.9 6.0----30.25- 83.7 69.4----
2024-06-20 10:00 amSSW 1.9 5.1----30.25+0.00 83.3 69.4----
2024-06-20 09:54 amSSW 2.9 6.0----30.25- 84.9 69.3----
2024-06-20 09:48 amSSW 2.9 5.1----30.25- 84.7 69.3----
2024-06-20 09:42 am SW 1.9 4.1----30.25- 83.8 69.3----
2024-06-20 09:36 amSSW 1.0 6.0----30.25- 83.3 69.3----
2024-06-20 09:30 am S 1.9 4.1----30.25- 82.9 69.4----
2024-06-20 09:24 am SW 1.0 6.0----30.25- 82.9 69.3----
2024-06-20 09:18 am SW 1.9 6.0----30.25- 82.2 69.3----
2024-06-20 09:12 amSSW 1.0 1.9----30.25- 82.2 69.3----
2024-06-20 09:06 am SW 1.9 6.0----30.25- 81.7 69.3----
2024-06-20 09:00 am- 0.0 7.0----30.25+0.01 82.0 69.4----
2024-06-20 08:54 amSSW 2.9 5.1----30.25- 81.1 69.3----
2024-06-20 08:48 amSSW 1.0 5.1----30.25- 80.8 69.3----
2024-06-20 08:42 am S 1.9 5.1----30.25- 81.0 69.3----
2024-06-20 08:36 am- 0.0 2.9----30.25- 80.6 69.3----
2024-06-20 08:30 amSSW 1.9 5.1----30.25- 79.5 69.3----
2024-06-20 08:24 amSSW 1.9 5.1----30.25- 80.2 69.3----
2024-06-20 08:18 amSSW 1.9 4.1----30.25- 80.6 69.3----
2024-06-20 08:12 am- 0.0 1.9----30.25- 80.8 69.3----
2024-06-20 08:06 amSSW 1.0 2.9----30.25- 79.9 69.3----
2024-06-20 08:00 am- 0.0 1.9----30.25+0.01 79.0 69.3----
2024-06-20 07:54 am- 0.0 1.0----30.25- 78.3 69.3----
2024-06-20 07:48 am S 1.0 2.9----30.25- 78.1 69.3----
2024-06-20 07:42 am- 0.0 1.0----30.25- 78.3 69.3----
2024-06-20 07:36 am- 0.0 2.9----30.25- 78.1 69.3----
2024-06-20 07:30 am- 0.0 2.9----30.25- 78.3 69.3----
2024-06-20 07:24 am- 0.0 2.9----30.25- 77.9 69.3----
2024-06-20 07:18 am- 0.0 2.9----30.25- 77.5 69.3----
2024-06-20 07:12 am- 0.0 1.9----30.25- 77.4 69.3----
2024-06-20 07:06 am- 0.0 1.0----30.25- 76.8 69.3----
2024-06-20 07:00 am- 0.0 2.9----30.24+0.00 76.6 69.3----
2024-06-20 06:54 am- 0.0 1.9----30.24- 76.1 69.3----
2024-06-20 06:48 am- 0.0 1.9----30.24- 75.9 69.3----
2024-06-20 06:42 am- 0.0 1.9----30.24- 75.4 69.3----
2024-06-20 06:36 am- 0.0 1.9----30.24- 75.0 69.3----
2024-06-20 06:30 am- 0.0 1.9----30.24- 74.5 69.3----
2024-06-20 06:24 amENE 1.0 1.9----30.24- 74.3 69.3----
2024-06-20 06:18 am- 0.0 1.0----30.24- 73.9 69.3----
2024-06-20 06:12 am- 0.0 1.0----30.24- 73.8 69.3----
2024-06-20 06:06 am- 0.0 1.9----30.24- 73.8 69.3----
2024-06-20 06:00 am- 0.0 0.0----30.24+0.00 73.9 69.3----
2024-06-20 05:54 am- 0.0 1.9----30.24- 73.9 69.3----
2024-06-20 05:48 amSSW 1.0 2.9----30.24- 73.9 69.3----
2024-06-20 05:42 am- 0.0 1.9----30.24- 73.9 69.3----
2024-06-20 05:36 am- 0.0 1.9----30.24- 73.9 69.3----
2024-06-20 05:30 am SW 1.0 1.0----30.24- 73.8 69.1----
2024-06-20 05:24 am- 0.0 1.0----30.24- 73.9 69.1----
2024-06-20 05:18 am- 0.0 1.9----30.24- 73.9 69.1----
2024-06-20 05:12 am SW 1.0 1.9----30.24- 73.9 69.1----
2024-06-20 05:06 amSSW 1.0 1.9----30.24- 73.9 69.1----
2024-06-20 05:00 am- 0.0 1.9----30.24-0.01 73.8 69.3----
2024-06-20 04:54 am- 0.0 1.9----30.24- 73.8 69.1----
2024-06-20 04:48 am- 0.0 1.9----30.24- 73.2 69.1----
2024-06-20 04:42 am- 0.0 1.0----30.24- 73.6 69.1----
2024-06-20 04:36 am- 0.0 1.0----30.24- 73.8 69.1----
2024-06-20 04:30 am- 0.0 1.0----30.24- 73.6 69.1----
2024-06-20 04:24 amESE 1.0 5.1----30.24- 73.9 69.3----
2024-06-20 04:18 amENE 5.1 5.1----30.24- 73.8 69.1----
2024-06-20 04:12 am- 0.0 2.9----30.24- 74.5 69.1----
2024-06-20 04:06 am- 0.0 1.9----30.24- 74.8 69.1----
2024-06-20 04:00 am- 0.0 1.9----30.24+0.01 75.0 69.1----
2024-06-20 03:54 am- 0.0 1.0----30.24- 74.8 69.1----
2024-06-20 03:48 am- 0.0 4.1----30.24- 75.0 69.1----
2024-06-20 03:42 am- 0.0 1.9----30.24- 74.8 69.1----
2024-06-20 03:36 am- 0.0 1.9----30.24- 74.7 69.1----
2024-06-20 03:30 am S 1.0 2.9----30.24- 74.8 69.1----
2024-06-20 03:24 am- 0.0 1.9----30.24- 74.8 69.1----
2024-06-20 03:18 amSSE 1.0 2.9----30.24- 74.7 69.1----
2024-06-20 03:12 am- 0.0 1.9----30.24- 74.8 69.1----
2024-06-20 03:06 am- 0.0 1.9----30.24- 74.8 69.1----
2024-06-20 03:00 am- 0.0 1.9----30.24+0.02 74.8 69.1----
2024-06-20 02:54 am- 0.0 1.9----30.24- 74.8 69.1----
2024-06-20 02:48 am- 0.0 2.9----30.24- 74.8 69.1----
2024-06-20 02:42 amESE 1.0 2.9----30.24- 74.8 69.1----
2024-06-20 02:36 am SE 1.0 2.9----30.25- 74.7 69.1----
2024-06-20 02:30 am E 1.9 11.1----30.25- 73.9 69.1----
2024-06-20 02:24 am E 9.9 15.0----30.25- 73.2 69.1----
2024-06-20 02:18 amENE 11.1 19.0----30.26- 73.2 69.1----
2024-06-20 02:12 am NE 14.0 18.1----30.25- 75.0 69.1----
2024-06-20 02:06 amENE 8.0 9.9----30.26- 75.2 69.1----
2024-06-20 02:00 amENE 6.0 8.0----30.25+0.04 75.7 69.1----
2024-06-20 01:54 amNNE 4.1 4.1----30.25- 76.3 69.1----
2024-06-20 01:48 am NW 1.0 2.9----30.25- 76.3 69.1----
2024-06-20 01:42 amWNW 4.1 8.9----30.25- 76.8 69.1----
2024-06-20 01:36 amWNW 8.0 9.9----30.25- 76.5 69.1----
2024-06-20 01:30 am W 1.9 2.9----30.24- 78.6 69.1----
2024-06-20 01:24 am- 0.0 1.0----30.24- 79.0 69.1----
2024-06-20 01:18 am SE 1.0 1.9----30.24- 79.2 69.1----
2024-06-20 01:12 am SW 1.0 1.9----30.24- 79.5 69.1----
2024-06-20 01:06 amWSW 1.9 2.9----30.24- 79.5 69.1----
2024-06-20 01:00 am- 0.0 1.9----30.23+0.01 79.7 69.1----
2024-06-20 12:54 am SW 1.9 7.0----30.23- 79.7 69.1----
2024-06-20 12:48 amSSW 1.0 4.1----30.23- 79.9 69.1----
2024-06-20 12:42 amSSW 1.9 4.1----30.22- 80.1 69.1----
2024-06-20 12:36 am SW 1.0 2.9----30.22- 80.2 69.1----
2024-06-20 12:30 am- 0.0 4.1----30.22- 80.4 69.1----
2024-06-20 12:24 amSSE 1.0 5.1----30.22- 80.6 69.1----
2024-06-20 12:18 am- 0.0 5.1----30.22- 80.8 69.1----
2024-06-20 12:12 amSSW 4.1 6.0----30.22- 81.0 69.1----
2024-06-20 12:06 am SW 1.0 5.1----30.22- 81.1 69.1----
2024-06-20 12:00 amWSW 1.9 4.1----30.22+0.02 81.3 69.1----
2024-06-19 11:54 pm SW 1.0 6.0----30.21- 81.5 69.1----
2024-06-19 11:48 pmSSW 1.0 5.1----30.21- 81.7 69.1----
2024-06-19 11:42 pmSSW 1.0 2.9----30.21- 81.9 69.1----
2024-06-19 11:36 pm NE 1.0 4.1----30.21- 81.9 69.1----
2024-06-19 11:30 pm W 1.0 4.1----30.21- 82.0 69.1----
2024-06-19 11:24 pm- 0.0 2.9----30.21- 82.4 69.1----
2024-06-19 11:18 pm- 0.0 2.9----30.21- 82.6 69.1----
2024-06-19 11:12 pm- 0.0 2.9----30.21- 82.8 69.1----
2024-06-19 11:06 pm- 0.0 2.9----30.22- 82.9 69.1----
2024-06-19 11:00 pm- 0.0 1.9----30.22+0.04 82.9 69.1----
2024-06-19 10:54 pm S 1.0 5.1----30.22- 83.1 69.1----
2024-06-19 10:48 pm- 0.0 1.0----30.22- 82.9 69.1----
2024-06-19 10:42 pm- 0.0 1.9----30.22- 83.1 69.1----
2024-06-19 10:36 pm- 0.0 1.9----30.22- 83.3 69.1----
2024-06-19 10:30 pm- 0.0 2.9----30.22- 83.5 69.1----
2024-06-19 10:24 pm- 0.0 2.9----30.22- 83.7 69.1----
2024-06-19 10:18 pm- 0.0 2.9----30.22- 83.8 69.1----
2024-06-19 10:12 pm- 0.0 1.9----30.22- 84.0 69.1----
2024-06-19 10:06 pm- 0.0 1.9----30.22- 84.2 69.1----
2024-06-19 10:00 pm- 0.0 2.9----30.22+0.04 84.4 69.1----
2024-06-19 09:54 pm- 0.0 1.9----30.22- 84.4 69.1----
2024-06-19 09:48 pm- 0.0 1.9----30.22- 84.6 69.1----
2024-06-19 09:42 pm- 0.0 1.9----30.22- 84.7 69.1----
2024-06-19 09:36 pm- 0.0 2.9----30.21- 84.9 69.1----
2024-06-19 09:30 pm- 0.0 1.0----30.21- 84.9 69.1----
2024-06-19 09:24 pm- 0.0 1.0----30.21- 85.1 69.1----
2024-06-19 09:18 pm- 0.0 2.9----30.21- 85.3 69.1----
2024-06-19 09:12 pm S 1.0 2.9----30.20- 85.6 69.1----
2024-06-19 09:06 pm- 0.0 4.1----30.20- 85.8 69.1----
2024-06-19 09:00 pm- 0.0 1.9----30.20+0.01 86.0 69.1----
2024-06-19 08:54 pmSSW 1.9 4.1----30.20- 86.4 69.1----
2024-06-19 08:48 pm- 0.0 2.9----30.19- 86.4 69.1----
2024-06-19 08:42 pm S 1.0 5.1----30.19- 86.7 69.1----
2024-06-19 08:36 pm- 0.0 1.0----30.19- 86.9 69.1----
2024-06-19 08:30 pm- 0.0 1.9----30.19- 87.1 69.1----
2024-06-19 08:24 pm- 0.0 2.9----30.19- 87.4 69.1----
2024-06-19 08:18 pmSSW 1.9 5.1----30.18- 87.6 69.1----
2024-06-19 08:12 pmSSW 1.9 5.1----30.18- 87.6 69.1----
2024-06-19 08:06 pm- 0.0 2.9----30.18- 88.0 69.1----
2024-06-19 08:00 pm- 0.0 4.1----30.17-0.02 88.3 69.1----
2024-06-19 07:54 pmWSW 1.0 2.9----30.18- 88.7 69.1----
2024-06-19 07:48 pmENE 1.0 2.9----30.17- 88.3 69.1----
2024-06-19 07:42 pm NE 1.0 4.1----30.17- 88.5 69.1----
2024-06-19 07:36 pmNNE 1.0 5.1----30.18- 89.2 69.1----
2024-06-19 07:30 pmSSW 1.9 2.9----30.18- 89.6 69.1----
2024-06-19 07:24 pm E 1.0 1.9----30.18- 89.8 69.1----
2024-06-19 07:18 pmENE 2.9 5.1----30.18- 89.2 69.1----
2024-06-19 07:12 pm E 1.9 4.1----30.18- 88.5 69.1----
2024-06-19 07:06 pm E 1.9 4.1----30.18- 82.4 69.1----
2024-06-19 07:00 pm E 1.9 5.1----30.18-0.02 82.6 69.1----
2024-06-19 06:54 pm E 1.9 5.1----30.17- 81.7 69.1----
2024-06-19 06:48 pm E 1.9 5.1----30.17-- 69.1----
2024-06-19 06:42 pm E 1.9 2.9----30.17-- 69.1----
2024-06-19 06:36 pm E 1.9 2.9----30.17-- 69.1----
2024-06-19 06:30 pm E 1.0 4.1----30.18- 81.9 69.1----
2024-06-19 06:24 pmESE 1.0 4.1----30.18- 80.8 69.1----
2024-06-19 06:18 pm E 1.9 5.1----30.18- 81.3-----
2024-06-19 06:12 pm E 1.9 7.0----30.18- 81.9-----
2024-06-19 06:06 pm E 2.9 7.0----30.18- 81.9-----
2024-06-19 06:00 pm E 1.9 5.1----30.18-0.02 81.7 69.1----
2024-06-19 05:54 pm E 1.9 5.1----30.19- 81.9 69.1----